Regional Weather Roundup
Issued by NWS Memphis, TN

Home | Current Version | Previous Version | Text Only | Print | Product List | Glossary On
Versions: 1 2 3 4 5 6 7 8 9 10 11 12 13 14 15 16 17 18 19 20 21 22 23 24 25 26 27 28 29 30 31 32 33 34 35 36 37 38 39 40 41 42 43 44 45 46 47 48 49 50
000
ASUS44 KMEG 272310
RWRMEG
MEMPHIS CWA HOURLY WEATHER ROUNDUP
NATIONAL WEATHER SERVICE MEMPHIS TN
500 PM CST TUE JAN 27 2015

...WEST TENNESSEE...

CITY           SKY/WX    TMP DP  RH WIND       PRES   REMARKS
MEMPHIS INTL   CLEAR     52  34  50 N7        30.14R
NWS MEMPHIS      N/A     52 N/A N/A MISG        N/A
JACKSON        CLEAR     46  32  58 N12       30.15R
LEXINGTON      CLEAR     45  28  53 N8        30.13R
SAVANNAH         N/A     48  30  49 N10       30.13R
DYERSBURG      CLEAR     45  25  45 N9        30.19R
UNION CITY     PTCLDY    41  34  75 N8        30.16R
PARIS          MOCLDY    39  28  65 N8        30.16R WCI  34


...EASTERN ARKANSAS...

CITY           SKY/WX    TMP DP  RH WIND       PRES   REMARKS
JONESBORO      CLEAR     51  37  58 E8        30.14S
WEST MEMPHIS   CLEAR     51  37  58 N9        30.14R
BATESVILLE     CLEAR     63  30  29 CALM      30.12S
NEWPORT        CLEAR     52  41  66 E6        30.15S
WALNUT RIDGE   CLEAR     52  36  54 E6        30.13S
BLYTHEVILLE    CLEAR     48  36  63 NE7       30.17R
SEARCY         CLEAR     60  34  37 SE6       30.13S
STUTTGART      CLEAR     57  36  44 E6        30.14S
PINE BLUFF     CLEAR     58  39  49 E6        30.13F
MONTICELLO     CLEAR     62  37  39 NE6       30.12S


...NORTH MISSISSIPPI...

CITY           SKY/WX    TMP DP  RH WIND       PRES   REMARKS
TUPELO         CLEAR     54  31  41 N10       30.10R
OXFORD         CLEAR     54  32  43 N9        30.14R
TUNICA         CLEAR     52  39  62 N10       30.15S
CLARKSDALE     CLEAR     55  41  58 NE6       30.15R
CORINTH        CLEAR     52  30  43 N8        30.11R
GRENADA        CLEAR     55  36  47 NW9       30.12R
GREENWOOD      CLEAR     57  37  47 NW7       30.12R
COLUMBUS       CLEAR     55  32  41 N8        30.09R
STARKVILLE     FAIR      55  34  44 N3        30.09R
GOLDEN TRIANGL CLEAR     55  36  47 N9        30.08R


...SOUTHEAST MISSOURI...

CITY           SKY/WX    TMP DP  RH WIND       PRES   REMARKS
WEST PLAINS    CLEAR     56  28  34 NE3       30.12R
POPLAR BLUFF   CLEAR     50  34  54 NE6       30.15R
CAPE GIRARDEAU CLEAR     43  33  68 NE9       30.18R


...NORTHWEST ALABAMA...

CITY           SKY/WX    TMP DP  RH WIND       PRES   REMARKS
MUSCLE SHOALS  CLEAR     51  29  42 NW9       30.10R


...MIDDLE TENNESSEE...

CITY           SKY/WX    TMP DP  RH WIND       PRES   REMARKS
NASHVILLE      CLOUDY    39  30  70 N10       30.15R WCI  32
CLARKSVILLE    CLOUDY    37  30  75 NW9       30.17R WCI  30
COLUMBIA       PTCLDY    43  36  75 N9        30.11R


...WESTERN KENTUCKY...

CITY           SKY/WX    TMP DP  RH WIND       PRES   REMARKS
PADUCAH        MOCLDY    41  28  60 N10       30.18R
FORT CAMPBELL  CLOUDY    37  29  72 N7        30.16R WCI  32


...CENTRAL ARKANSAS...

CITY           SKY/WX    TMP DP  RH WIND       PRES   REMARKS
LITTLE ROCK    CLEAR     67  28  23 CALM      30.12S


SKY/WX REPORTED AS FAIR MEANS FEW OR NO CLOUDS BELOW
12 THOUSAND FEET.



USA.gov is the U.S. government's official web portal to all federal, state and local government web resources and services.